Weather Roundup
Issued by NWS Chicago, IL

Home | Current Version | Previous Version | Text Only | Print | Product List | Glossary On
Versions: 1 2 3 4 5 6 7 8 9 10 11 12 13 14 15 16 17 18 19 20 21 22 23 24 25 26 27 28 29 30 31 32 33 34 35 36 37 38 39 40 41 42 43 44 45 46 47 48 49 50
610
NZUS59 KLOT 270509
HRRLOT

CHICAGO AREA WEATHER ROUNDUP
NATIONAL WEATHER SERVICE CHICAGO/ROMEOVILLE IL
1200 AM CDT TUE JUN 27 2017

NOTE: "FAIR" INDICATES FEW OR NO CLOUDS BELOW 12,000 FEET WITH NO
SIGNIFICANT WEATHER AND/OR OBSTRUCTIONS TO VISIBILITY.

* THESE STATIONS ARE NOT UNDER NWS QUALITY CONTROL. THEY ALSO MAY NOT
  REPORT WEATHER SUCH AS PRECIPITATION OR FOG.

ILZ005-006-012>014-019>023-270600-
NORTHEAST ILLINOIS

CITY           SKY/WX    TMP DP  RH WIND       PRES   REMARKS
OHARE          CLEAR     59  44  57 NW8       30.09S
MIDWAY         PTCLDY    59  45  59 W5        30.10R
AURORA         CLEAR     51  46  83 W3        30.12R
LANSING*       CLEAR     57  43  59 W5        30.10S
JOLIET*        CLEAR     52  48  86 CALM      30.11S
WAUKEGAN       CLEAR     52  48  86 W3        30.09R
DUPAGE AIRPORT CLEAR     54  47  77 W5        30.10R
WHEELING       CLEAR     55  47  74 NW6       30.11R
MORRIS*        CLEAR     54  45  70 CALM      30.11R
LEWIS AIRPORT* CLEAR     57  43  59 NW3       30.11R
NORTHERLY ISL    N/A     61  44  53 W6          N/A
$$

WIZ051-052-058>065-066-070>072-270600-
SOUTHEAST WISCONSIN

CITY           SKY/WX    TMP DP  RH WIND       PRES   REMARKS
MILWAUKEE      PTCLDY    59  49  69 W3        30.08S
KENOSHA*       CLEAR     50  45  83 W3        30.09R
RACINE*        CLEAR     54  46  74 W5        30.10R
WAUKESHA       CLEAR     52  46  82 CALM      30.10S
WEST BEND      CLEAR     48  48 100 CALM      30.08R
$$

INZ001>003-010>013-019-020-270600-
NORTHWEST INDIANA

CITY           SKY/WX    TMP DP  RH WIND       PRES   REMARKS
GARY*          CLEAR     58  43  59 W6        30.10S
MICHIGAN CITY* NOT AVBL
RENSSELAER*    NOT AVBL
VALPARAISO     CLEAR     58  48  69 W3        30.09S
$$

LMZ740>746-270600-
SOUTHERN LAKE MICHIGAN

STATION/POSITION TIME  SKY/WX   TEMP WIND        PRES    VSBY
                                AIR  DIR/SP/G
                 (UTC)          (F)  (DEG/KT/KT) (MB)    (MI)
HARRISON CRIB    0440            62  300/ 12/ 13   N/A
BURNHAM HARBOR   0500            61                N/A
CALUMET HARBOR   0448            60  290/  3/  5 1018.5R
BURNS HARBOR     0440            63  320/ 14/ 16 1019.0S
MICHIGAN CITY    0440            62  300/ 15/ 19   N/A
$$

ABBREVIATIONS USED IN REMARKS
   TC - TEMPERATURE IN CELSIUS
  WCI - WIND CHILL INDEX
   HX - HEAT INDEX
  VSB - VISIBILITY
$$




USA.gov is the U.S. government's official web portal to all federal, state and local government web resources and services.